Weather History for Fayetteville, AR

Change the Weather History Date:

Thursday, December 13, 2012

  Actual Average Record
Temperature  
Mean Temperature 47 °F 38 °F  
Max Temperature 57 °F 48 °F 69 °F (1991)
Min Temperature 36 °F 27 °F 2 °F (1985)
Degree Days  
Heating Degree Days 18 27  
Month to date heating degree days 226 335  
Since 1 July heating degree days 1039 1164  
Moisture  
Dew Point 19 °F    
Average Humidity 34    
Maximum Humidity 44    
Minimum Humidity 24    
Precipitation  
Precipitation 0.00 in 0.10 in 0.67 in (2002)
Month to date precipitation 1.15 1.48  
Year to date precipitation 29.06 46.75  
Sea Level Pressure  
Sea Level Pressure 30.23 in    
Wind  
Wind Speed 7 mph (South)    
Max Wind Speed 20 mph    
Max Gust Speed 28 mph    
Visibility 10 miles    
Events      
T = Trace of Precipitation, MM = Missing Value Source: NWS Daily Summary

Daily Weather History Graph

Daily Weather History Graph

Search for Another Location

Airport:

Trip Planner

Search our weather history database for the weather conditions in past years. The results will help you decide how hot, cold, wet, or windy it might be!

Date:

Astronomy

Dec. 13, 2012 Rise Set
Actual Time 7:18 AM CST 5:03 PM CST
Civil Twilight 6:50 AM CST 5:31 PM CST
Nautical Twilight 6:18 AM CST 6:03 PM CST
Astronomical Twilight 5:47 AM CST 6:35 PM CST
Moon 7:28 AM CST (12/13) 5:45 PM CST (12/13)
Length of Visible Light 10h 41m
Length of Day
9h 44m
New Moon, 0% of the Moon is Illuminated
Dec 13
New Moon
Dec 19
First Quarter
Dec 28
Full
Jan 4
Last Quarter
Jan 11
New

Hourly Weather History & Observations

Time (CST) Temp. Windchill Dew Point Humidity Pressure Visibility Wind Dir Wind Speed Gust Speed Precip Events Conditions
12:53 AM 36.0 °F 30.3 °F 16.0 °F 44% 30.26 in 10.0 mi South 6.9 mph - N/A   Clear
1:53 AM 39.0 °F - 15.1 °F 38% 30.27 in 10.0 mi Calm Calm - N/A   Clear
2:53 AM 37.9 °F 34.4 °F 16.0 °F 41% 30.27 in 10.0 mi SSW 4.6 mph - N/A   Clear
3:53 AM 39.0 °F - 15.1 °F 38% 30.26 in 10.0 mi Calm Calm - N/A   Clear
4:53 AM 37.9 °F - 16.0 °F 41% 30.26 in 10.0 mi Calm Calm - N/A   Clear
5:53 AM 37.9 °F - 16.0 °F 41% 30.27 in 10.0 mi Calm Calm - N/A   Clear
6:53 AM 37.0 °F - 17.1 °F 44% 30.28 in 10.0 mi Calm Calm - N/A   Clear
7:53 AM 37.9 °F 35.5 °F 17.1 °F 43% 30.29 in 10.0 mi East 3.5 mph - N/A   Clear
8:53 AM 43.0 °F 37.2 °F 19.0 °F 38% 30.28 in 10.0 mi South 10.4 mph - N/A   Clear
9:53 AM 48.0 °F - 18.0 °F 30% 30.27 in 10.0 mi SSW 15.0 mph 24.2 mph N/A   Clear
10:53 AM 51.1 °F - 19.0 °F 28% 30.27 in 10.0 mi South 17.3 mph - N/A   Clear
11:53 AM 53.1 °F - 19.9 °F 27% 30.27 in 10.0 mi South 16.1 mph - N/A   Clear
12:53 PM 55.0 °F - 19.9 °F 25% 30.24 in 10.0 mi SSW 17.3 mph 27.6 mph N/A   Clear
1:53 PM 55.0 °F - 21.9 °F 28% 30.23 in 10.0 mi South 12.7 mph - N/A   Clear
2:53 PM 57.0 °F - 21.9 °F 26% 30.20 in 10.0 mi South 11.5 mph - N/A   Clear
3:53 PM 54.0 °F - 21.0 °F 28% 30.18 in 10.0 mi South 13.8 mph - N/A   Clear
4:53 PM 50.0 °F - 21.2 °F 32% 30.17 in 10.0 mi SSW 5.8 mph - N/A   Clear
6:53 PM 44.6 °F - 21.2 °F 39% 30.17 in 10.0 mi Calm Calm - N/A   Clear
7:53 PM 45.0 °F 41.8 °F 23.0 °F 42% 30.18 in 10.0 mi South 5.8 mph - N/A   Clear
8:53 PM 44.1 °F 40.8 °F 23.0 °F 43% 30.19 in 10.0 mi South 5.8 mph - N/A   Clear
9:53 PM 46.0 °F 40.6 °F 21.9 °F 39% 30.20 in 10.0 mi SSW 11.5 mph - N/A   Clear
10:53 PM 45.0 °F - 21.0 °F 39% 30.19 in 10.0 mi Calm Calm - N/A   Clear
11:53 PM 44.6 °F 39.2 °F 19.4 °F 37% 30.19 in 10.0 mi South 10.4 mph - N/A   Clear